DateCollected , Del(Ne/Xe)_% , Del(Ar/Xe)_% , Del(Kr/Xe)_% , Del(Ne/Kr)_% , Del(Ar/Kr)_% , Del(Ne/Ar)_% , Temp_C , Salinity_psu 
10-Jul-2018 14:14:19 , 1.22 , 0.398 , 0.436 , 1.63 , 0.304 , 1.39, 28.51 , 33.82  
10-Jul-2018 14:48:21 , 6.09 , 1.85 , 0.656 , 3.12 , 0.711 , 2.23, 26.43 , 33.82  
10-Jul-2018 14:49:21 , 6.94 , 1.66 , 0.622 , 3.9 , 0.69 , 3.3, 26.41 , 33.82  
10-Jul-2018 14:50:21 , 7.19 , 1.87 , 0.633 , 3.99 , 0.817 , 3.08, 26.34 , 33.82  
10-Jul-2018 14:51:21 , 6.96 , 1.74 , 0.591 , 4.18 , 0.868 , 3.18, 26.37 , 33.82  
10-Jul-2018 14:52:21 , 8.69 , 2.24 , 0.705 , 4.45 , 0.883 , 3.51, 26.34 , 33.82  
10-Jul-2018 14:53:21 , 10.4 , 2.61 , 0.822 , 4.61 , 0.77 , 4.05, 26.07 , 33.82  
10-Jul-2018 14:54:21 , 11.5 , 2.9 , 0.896 , 4.77 , 0.727 , 4.38, 25.99 , 33.82  
10-Jul-2018 14:55:21 , 12.1 , 3.19 , 0.969 , 4.58 , 0.672 , 4.28, 25.91 , 33.82  
10-Jul-2018 14:56:21 , 11.9 , 3.06 , 0.975 , 4.42 , 0.54 , 4.41, 25.87 , 33.82  
10-Jul-2018 14:57:21 , 12.5 , 3.15 , 1.04 , 4.26 , 0.358 , 4.7, 25.91 , 33.82  
10-Jul-2018 14:58:21 , 11.2 , 3.19 , 1.04 , 3.48 , 0.411 , 3.52, 25.92 , 33.82  
10-Jul-2018 14:59:21 , 10.5 , 3.31 , 1.07 , 2.86 , 0.401 , 2.72, 25.82 , 33.82  
10-Jul-2018 15:00:21 , 10.7 , 3.46 , 1.09 , 2.75 , 0.441 , 2.45, 25.64 , 33.82  
10-Jul-2018 15:01:21 , 11 , 3.51 , 1.12 , 2.74 , 0.371 , 2.62, 25.81 , 33.82  
10-Jul-2018 15:02:21 , 10.6 , 3.4 , 1.1 , 2.53 , 0.331 , 2.44, 25.65 , 33.82  
10-Jul-2018 15:03:21 , 10.2 , 3.24 , 1.06 , 2.72 , 0.393 , 2.5, 25.64 , 33.82  
10-Jul-2018 15:04:22 , 9.94 , 2.97 , 0.993 , 3.12 , 0.412 , 2.98, 25.58 , 33.82  
10-Jul-2018 15:05:22 , 9.56 , 2.67 , 0.912 , 3.53 , 0.487 , 3.32, 25.6 , 33.82  
10-Jul-2018 15:06:22 , 8.89 , 2.08 , 0.81 , 3.89 , 0.396 , 4.04, 25.56 , 33.82  
10-Jul-2018 15:07:22 , 9.4 , 2.1 , 0.787 , 4.39 , 0.5 , 4.42, 25.54 , 33.82  
10-Jul-2018 15:08:22 , 10.1 , 2.17 , 0.78 , 4.79 , 0.557 , 4.81, 25.56 , 33.82  
10-Jul-2018 15:09:22 , 10.8 , 2.31 , 0.823 , 4.9 , 0.509 , 5.07, 25.66 , 33.82  
10-Jul-2018 15:10:22 , 10.5 , 2.16 , 0.791 , 4.97 , 0.501 , 5.19, 25.52 , 33.82  
10-Jul-2018 15:11:22 , 9.59 , 1.91 , 0.775 , 4.53 , 0.368 , 4.96, 25.41 , 33.82  
10-Jul-2018 15:12:22 , 9.76 , 1.87 , 0.799 , 4.46 , 0.25 , 5.18, 25.43 , 33.82  
10-Jul-2018 15:13:22 , 10.2 , 1.99 , 0.798 , 4.79 , 0.36 , 5.34, 25.44 , 33.82  
10-Jul-2018 15:14:22 , 10.3 , 1.86 , 0.75 , 5.29 , 0.45 , 5.73, 25.5 , 33.82  
10-Jul-2018 15:15:22 , 9.76 , 1.69 , 0.669 , 5.61 , 0.622 , 5.66, 25.65 , 33.82  
10-Jul-2018 15:16:22 , 9.76 , 1.63 , 0.663 , 5.65 , 0.595 , 5.79, 25.69 , 33.82  
10-Jul-2018 15:17:22 , 10.6 , 1.94 , 0.736 , 5.65 , 0.584 , 5.82, 25.76 , 33.82  
10-Jul-2018 15:18:22 , 10.3 , 1.96 , 0.749 , 5.4 , 0.553 , 5.55, 25.79 , 33.82  
10-Jul-2018 15:19:22 , 9.27 , 1.74 , 0.682 , 5.3 , 0.625 , 5.2, 25.78 , 33.82  
10-Jul-2018 15:20:22 , 9.61 , 1.67 , 0.68 , 5.53 , 0.597 , 5.57, 25.72 , 33.82  
10-Jul-2018 15:21:22 , 10.2 , 1.89 , 0.733 , 5.52 , 0.579 , 5.63, 25.74 , 33.82  
10-Jul-2018 15:22:23 , 10.1 , 1.86 , 0.706 , 5.62 , 0.658 , 5.54, 25.76 , 33.82  
10-Jul-2018 15:23:23 , 9.75 , 1.74 , 0.654 , 5.81 , 0.749 , 5.55, 25.69 , 33.82  
10-Jul-2018 15:24:23 , 10.5 , 1.93 , 0.708 , 5.9 , 0.709 , 5.77, 25.6 , 33.82  
10-Jul-2018 15:25:23 , 9.9 , 2.04 , 0.752 , 5.16 , 0.623 , 5.04, 25.57 , 33.82  
10-Jul-2018 15:26:23 , 9.93 , 2.22 , 0.827 , 4.55 , 0.477 , 4.64, 25.59 , 33.82  
10-Jul-2018 15:27:23 , 9.35 , 2.08 , 0.808 , 4.32 , 0.431 , 4.47, 25.51 , 33.82  
10-Jul-2018 15:28:23 , 9.05 , 1.86 , 0.729 , 4.82 , 0.554 , 4.77, 25.55 , 33.82  
10-Jul-2018 15:29:23 , 9.1 , 1.75 , 0.679 , 5.27 , 0.664 , 5.06, 25.52 , 33.82  
10-Jul-2018 15:30:23 , 9.18 , 1.77 , 0.687 , 5.26 , 0.655 , 5.08, 25.55 , 33.82  
10-Jul-2018 15:31:23 , 8.94 , 1.67 , 0.652 , 5.4 , 0.709 , 5.1, 25.57 , 33.82  
10-Jul-2018 15:32:23 , 8.45 , 1.54 , 0.648 , 5.21 , 0.644 , 5.01, 25.56 , 33.82  
10-Jul-2018 15:33:23 , 8.78 , 1.51 , 0.656 , 5.41 , 0.616 , 5.34, 25.64 , 33.82  
10-Jul-2018 15:34:23 , 8.42 , 1.36 , 0.622 , 5.44 , 0.62 , 5.37, 25.65 , 33.82  
10-Jul-2018 15:35:23 , 8.78 , 1.52 , 0.634 , 5.51 , 0.677 , 5.32, 25.67 , 33.82  
10-Jul-2018 15:36:23 , 8.93 , 1.54 , 0.653 , 5.41 , 0.6 , 5.4, 25.65 , 33.82  
10-Jul-2018 15:37:23 , 8.22 , 1.2 , 0.568 , 5.62 , 0.642 , 5.56, 25.7 , 33.82  
10-Jul-2018 15:38:23 , 9.31 , 1.36 , 0.601 , 6.04 , 0.652 , 6.1, 25.71 , 33.82  
10-Jul-2018 15:39:23 , 10.2 , 1.71 , 0.718 , 5.58 , 0.466 , 6.02, 25.69 , 33.82  
10-Jul-2018 15:40:23 , 11 , 1.86 , 0.778 , 5.58 , 0.33 , 6.38, 25.46 , 33.82  
10-Jul-2018 15:41:24 , 10.6 , 1.8 , 0.789 , 5.21 , 0.218 , 6.21, 25.61 , 33.82  
10-Jul-2018 15:42:24 , 10.8 , 1.7 , 0.729 , 5.78 , 0.363 , 6.56, 25.7 , 33.82  
10-Jul-2018 15:43:24 , 10.6 , 1.38 , 0.613 , 6.46 , 0.516 , 7.09, 25.72 , 33.82  
10-Jul-2018 15:44:24 , 10.8 , 1.42 , 0.59 , 6.71 , 0.615 , 7.17, 25.72 , 33.82  
10-Jul-2018 15:45:24 , 11 , 1.49 , 0.621 , 6.58 , 0.544 , 7.18, 25.74 , 33.82  
10-Jul-2018 15:46:24 , 9.27 , 1.09 , 0.574 , 5.79 , 0.376 , 6.58, 25.73 , 33.82  
10-Jul-2018 15:47:24 , 8.6 , 0.954 , 0.555 , 5.48 , 0.321 , 6.32, 25.74 , 33.82  
10-Jul-2018 15:48:24 , 8.34 , 1.01 , 0.586 , 5.03 , 0.225 , 5.99, 25.74 , 33.82  
10-Jul-2018 15:49:24 , 7.36 , 0.829 , 0.544 , 4.76 , 0.247 , 5.59, 25.75 , 33.82  
10-Jul-2018 15:50:24 , 6.76 , 0.804 , 0.508 , 4.67 , 0.348 , 5.16, 25.76 , 33.82  
10-Jul-2018 15:51:24 , 5.98 , 0.769 , 0.491 , 4.33 , 0.382 , 4.61, 25.76 , 33.82  
10-Jul-2018 15:52:24 , 5.35 , 0.704 , 0.486 , 3.93 , 0.332 , 4.23, 25.76 , 33.82  
10-Jul-2018 15:53:24 , 4.74 , 0.541 , 0.482 , 3.57 , 0.208 , 4.11, 25.76 , 33.82  
10-Jul-2018 15:54:24 , 3.98 , 0.466 , 0.469 , 3.15 , 0.191 , 3.62, 25.76 , 33.82  
10-Jul-2018 15:55:24 , 3.74 , 0.439 , 0.475 , 2.94 , 0.139 , 3.5, 25.76 , 33.82  
10-Jul-2018 15:56:24 , 3.53 , 0.556 , 0.516 , 2.41 , 0.0576 , 3.06, 25.76 , 33.82  
10-Jul-2018 15:57:24 , 4.28 , 0.849 , 0.569 , 2.47 , 0.0876 , 3.06, 25.76 , 33.82  
10-Jul-2018 15:58:24 , 4.19 , 0.938 , 0.604 , 2.06 , 0.00166 , 2.78, 25.75 , 33.82  
10-Jul-2018 15:59:25 , 4.68 , 0.951 , 0.571 , 2.74 , 0.166 , 3.18, 25.76 , 33.82  
10-Jul-2018 16:00:25 , 4.63 , 0.871 , 0.55 , 2.91 , 0.192 , 3.31, 25.76 , 33.82  
10-Jul-2018 16:01:25 , 3.84 , 0.82 , 0.543 , 2.44 , 0.185 , 2.76, 25.76 , 33.82  
10-Jul-2018 16:02:25 , 2.97 , 0.745 , 0.539 , 1.85 , 0.133 , 2.19, 25.76 , 33.82  
10-Jul-2018 16:03:25 , 2.97 , 0.765 , 0.521 , 2.06 , 0.229 , 2.17, 25.75 , 33.82  
10-Jul-2018 16:04:25 , 2.68 , 0.773 , 0.536 , 1.73 , 0.163 , 1.93, 25.75 , 33.82  
10-Jul-2018 16:05:25 , 3.19 , 1.03 , 0.571 , 1.75 , 0.235 , 1.76, 25.75 , 33.82  
10-Jul-2018 16:06:25 , 2.78 , 0.996 , 0.563 , 1.54 , 0.236 , 1.5, 25.75 , 33.82  
10-Jul-2018 16:07:25 , 2.77 , 0.963 , 0.545 , 1.71 , 0.284 , 1.57, 25.75 , 33.82  
10-Jul-2018 16:08:25 , 2.92 , 0.966 , 0.556 , 1.71 , 0.24 , 1.68, 25.75 , 33.82  
10-Jul-2018 16:09:25 , 3.6 , 1.2 , 0.578 , 1.98 , 0.357 , 1.7, 25.75 , 33.82  
10-Jul-2018 16:10:25 , 3.94 , 1.28 , 0.597 , 2.03 , 0.347 , 1.78, 25.75 , 33.82  
10-Jul-2018 16:11:25 , 4.09 , 1.46 , 0.617 , 1.95 , 0.422 , 1.47, 25.75 , 33.82  
10-Jul-2018 16:12:25 , 4.21 , 1.29 , 0.56 , 2.61 , 0.522 , 2.01, 25.75 , 33.82  
10-Jul-2018 16:13:25 , 4.13 , 1.16 , 0.523 , 2.93 , 0.572 , 2.26, 25.75 , 33.82  
10-Jul-2018 16:14:25 , 4.26 , 1.25 , 0.546 , 2.79 , 0.554 , 2.14, 25.75 , 33.82  
10-Jul-2018 16:15:25 , 4.26 , 1.3 , 0.559 , 2.66 , 0.542 , 2, 25.75 , 33.82  
10-Jul-2018 16:16:25 , 3.9 , 1.22 , 0.543 , 2.55 , 0.541 , 1.89, 25.75 , 33.82  
10-Jul-2018 16:17:26 , 3.35 , 1.18 , 0.545 , 2.12 , 0.498 , 1.46, 25.75 , 33.82  
10-Jul-2018 16:18:26 , 3.37 , 1.18 , 0.529 , 2.3 , 0.571 , 1.48, 25.75 , 33.82  
10-Jul-2018 16:19:26 , 2.94 , 1.08 , 0.498 , 2.31 , 0.62 , 1.35, 25.75 , 33.82  
10-Jul-2018 16:20:26 , 2.13 , 0.76 , 0.42 , 2.47 , 0.666 , 1.42, 25.75 , 33.82  
10-Jul-2018 16:21:26 , 1.89 , 0.724 , 0.39 , 2.6 , 0.759 , 1.3, 25.76 , 33.82  
10-Jul-2018 16:22:26 , 2.06 , 0.736 , 0.379 , 2.81 , 0.811 , 1.42, 25.75 , 33.82  
10-Jul-2018 16:23:26 , 1.33 , 0.688 , 0.386 , 2.2 , 0.74 , 0.863, 25.75 , 33.82  
10-Jul-2018 16:24:26 , 1.94 , 0.953 , 0.45 , 2.03 , 0.705 , 0.743, 25.76 , 33.82  
10-Jul-2018 16:25:26 , 1.8 , 1.06 , 0.481 , 1.62 , 0.667 , 0.341, 25.75 , 33.82  
10-Jul-2018 16:26:26 , 1.21 , 0.962 , 0.451 , 1.53 , 0.722 , 0.0572, 25.76 , 33.82  
10-Jul-2018 16:27:26 , 1.3 , 0.638 , 0.354 , 2.59 , 0.849 , 0.984, 25.76 , 33.82  
10-Jul-2018 16:28:26 , 1.55 , 0.642 , 0.333 , 2.97 , 0.939 , 1.21, 25.76 , 33.82  
10-Jul-2018 16:29:26 , 1.72 , 0.536 , 0.287 , 3.53 , 1.04 , 1.62, 25.76 , 33.82  
10-Jul-2018 16:30:26 , 1.58 , 0.41 , 0.256 , 3.71 , 1.05 , 1.8, 25.76 , 33.82  
10-Jul-2018 16:31:26 , 2.2 , 0.475 , 0.271 , 4.04 , 1.05 , 2.22, 25.76 , 33.82  
10-Jul-2018 16:32:26 , 1.47 , 0.277 , 0.238 , 3.85 , 1.02 , 2.06, 25.76 , 33.82  
10-Jul-2018 16:33:26 , 0.771 , 0.0225 , 0.197 , 3.72 , 0.967 , 2.04, 25.76 , 33.82  
10-Jul-2018 16:34:26 , 1.72 , 0.112 , 0.214 , 4.28 , 0.978 , 2.7, 25.76 , 33.82  
10-Jul-2018 16:35:27 , 0.971 , -0.0801 , 0.174 , 4.13 , 0.979 , 2.51, 25.76 , 33.82  
10-Jul-2018 16:36:27 , 1.33 , -0.117 , 0.154 , 4.55 , 1.03 , 2.91, 25.76 , 33.82  
10-Jul-2018 16:37:27 , 1.78 , -0.0105 , 0.173 , 4.69 , 1.04 , 3.04, 25.75 , 33.82  
10-Jul-2018 16:38:27 , 1.49 , 0.0209 , 0.185 , 4.39 , 1.02 , 2.7, 25.75 , 33.82  
10-Jul-2018 16:39:27 , 1.7 , 0.0478 , 0.201 , 4.42 , 0.986 , 2.84, 25.75 , 33.82  
10-Jul-2018 16:40:27 , 1.52 , 0.122 , 0.232 , 4.06 , 0.932 , 2.52, 25.75 , 33.82  
10-Jul-2018 16:41:27 , 2.1 , 0.292 , 0.247 , 4.3 , 1.01 , 2.61, 25.75 , 33.82  
10-Jul-2018 16:42:27 , 1.51 , 0.232 , 0.245 , 3.91 , 0.969 , 2.23, 25.75 , 33.82  
10-Jul-2018 16:43:27 , 2.26 , 0.311 , 0.251 , 4.36 , 1.01 , 2.69, 25.75 , 33.82  
10-Jul-2018 16:44:27 , 2.64 , 0.386 , 0.269 , 4.48 , 1 , 2.85, 25.75 , 33.82  
10-Jul-2018 16:45:27 , 1.98 , 0.327 , 0.258 , 4.09 , 1 , 2.38, 25.74 , 33.82  
10-Jul-2018 16:46:27 , 1.76 , 0.295 , 0.255 , 3.97 , 0.988 , 2.26, 25.74 , 33.82  
10-Jul-2018 16:47:27 , 2.01 , 0.332 , 0.279 , 3.92 , 0.926 , 2.38, 25.75 , 33.82  
10-Jul-2018 16:48:27 , 2.12 , 0.442 , 0.302 , 3.76 , 0.923 , 2.2, 25.74 , 33.82  
10-Jul-2018 16:49:27 , 1.74 , 0.505 , 0.345 , 3.08 , 0.799 , 1.68, 25.74 , 33.82  
10-Jul-2018 16:50:27 , 1.67 , 0.633 , 0.397 , 2.54 , 0.699 , 1.3, 25.73 , 33.82  
10-Jul-2018 16:51:27 , 1.96 , 0.895 , 0.496 , 1.77 , 0.511 , 0.901, 25.73 , 33.82  
10-Jul-2018 16:52:27 , 1.98 , 1.02 , 0.558 , 1.15 , 0.356 , 0.599, 25.74 , 33.82  
10-Jul-2018 16:53:28 , 2.42 , 1.24 , 0.612 , 0.925 , 0.314 , 0.442, 25.77 , 33.82  
10-Jul-2018 16:54:28 , 2.29 , 1.52 , 0.717 , -0.177 , 0.122 , -0.35, 25.78 , 33.82  
10-Jul-2018 16:55:28 , 1.8 , 1.61 , 0.749 , -0.922 , 0.0602 , -1.05, 25.79 , 33.82  
10-Jul-2018 17:55:31 , 1.39 , 1.21 , 0.653 , -0.304 , 0.128 , -0.464, 25.84 , 33.82  
10-Jul-2018 17:56:31 , 1.4 , 1.15 , 0.635 , -0.0663 , 0.161 , -0.276, 25.82 , 33.82  
10-Jul-2018 17:57:31 , 1.97 , 1.35 , 0.706 , -0.364 , 0.0348 , -0.278, 25.82 , 33.82  
10-Jul-2018 17:58:31 , 1.75 , 1.37 , 0.732 , -0.803 , -0.071 , -0.522, 25.84 , 33.82  
10-Jul-2018 17:59:31 , 0.941 , 1.12 , 0.662 , -0.69 , 0.000887 , -0.599, 25.83 , 33.82  
10-Jul-2018 18:00:31 , 1.52 , 1.16 , 0.67 , -0.341 , 0.00253 , -0.186, 25.82 , 33.82  
10-Jul-2018 18:01:31 , 1.12 , 1.04 , 0.659 , -0.51 , -0.053 , -0.233, 25.82 , 33.82  
10-Jul-2018 18:02:31 , 1.11 , 0.989 , 0.631 , -0.144 , 0.0417 , -0.0825, 25.84 , 33.82  
10-Jul-2018 18:03:31 , 0.775 , 0.877 , 0.616 , -0.281 , -0.000544 , -0.121, 25.84 , 33.82  
10-Jul-2018 18:04:31 , 0.49 , 0.795 , 0.584 , -0.166 , 0.0631 , -0.165, 25.84 , 33.82  
10-Jul-2018 18:05:31 , 0.774 , 0.992 , 0.645 , -0.645 , -0.0441 , -0.421, 25.83 , 33.82  
10-Jul-2018 18:06:32 , 0.348 , 0.889 , 0.653 , -1.1 , -0.186 , -0.551, 25.85 , 33.82  
10-Jul-2018 18:07:32 , -0.42 , 0.725 , 0.617 , -1.3 , -0.174 , -0.815, 25.85 , 33.82  
10-Jul-2018 18:08:32 , -0.848 , 0.644 , 0.592 , -1.38 , -0.142 , -0.999, 25.86 , 33.82  
10-Jul-2018 18:09:32 , -0.421 , 0.618 , 0.577 , -0.85 , -0.0881 , -0.533, 25.87 , 33.82  
10-Jul-2018 18:10:32 , 0.000201 , 0.9 , 0.666 , -1.34 , -0.198 , -0.827, 25.86 , 33.82  
10-Jul-2018 18:11:32 , -0.393 , 0.788 , 0.664 , -1.51 , -0.267 , -0.88, 25.85 , 33.82  
10-Jul-2018 18:12:32 , -0.657 , 0.691 , 0.629 , -1.31 , -0.187 , -0.87, 25.86 , 33.82  
10-Jul-2018 18:13:32 , -0.738 , 0.458 , 0.566 , -0.684 , -0.112 , -0.347, 25.87 , 33.82  
10-Jul-2018 18:14:32 , -0.451 , 0.394 , 0.513 , 0.15 , 0.0814 , 0.093, 25.86 , 33.82  
10-Jul-2018 18:15:32 , -0.782 , 0.23 , 0.467 , 0.348 , 0.135 , 0.186, 25.88 , 33.82  
10-Jul-2018 18:16:32 , -0.107 , 0.469 , 0.498 , 0.506 , 0.202 , 0.202, 25.88 , 33.82  
10-Jul-2018 18:17:32 , 0.162 , 0.672 , 0.564 , 0.0478 , 0.103 , -0.0718, 25.89 , 33.82  
10-Jul-2018 18:18:32 , 0.483 , 0.814 , 0.619 , -0.298 , -0.0146 , -0.147, 25.89 , 33.82  
10-Jul-2018 18:19:32 , 0.348 , 0.848 , 0.631 , -0.535 , -0.041 , -0.354, 25.88 , 33.82  
10-Jul-2018 18:20:32 , 0.168 , 0.863 , 0.654 , -0.929 , -0.132 , -0.569, 25.87 , 33.82  
10-Jul-2018 18:21:32 , -0.522 , 0.768 , 0.611 , -1.21 , -0.0753 , -1.01, 25.88 , 33.82  
10-Jul-2018 18:22:32 , -0.182 , 0.86 , 0.636 , -1.25 , -0.106 , -0.946, 25.86 , 33.82  
10-Jul-2018 18:23:32 , 0.257 , 1.07 , 0.685 , -1.34 , -0.122 , -1.04, 25.86 , 33.82  
10-Jul-2018 18:24:33 , 0.16 , 1.13 , 0.715 , -1.74 , -0.198 , -1.3, 25.86 , 33.82  
10-Jul-2018 18:25:33 , -0.187 , 1.09 , 0.713 , -2.01 , -0.232 , -1.52, 25.88 , 33.82  
10-Jul-2018 18:26:33 , 0.461 , 1.18 , 0.746 , -1.9 , -0.317 , -1.14, 25.85 , 33.82  
10-Jul-2018 18:27:33 , 0.0464 , 1.09 , 0.75 , -2.32 , -0.432 , -1.3, 25.87 , 33.82  
10-Jul-2018 18:28:33 , -0.00945 , 1.04 , 0.73 , -2.22 , -0.399 , -1.25, 25.88 , 33.82  
10-Jul-2018 18:29:33 , -0.837 , 0.775 , 0.677 , -2.36 , -0.42 , -1.32, 25.87 , 33.82  
10-Jul-2018 18:30:33 , -0.34 , 0.666 , 0.635 , -1.52 , -0.329 , -0.61, 25.88 , 33.82  
10-Jul-2018 18:31:33 , -0.102 , 0.491 , 0.553 , -0.479 , -0.119 , 0.0359, 25.86 , 33.82  
10-Jul-2018 18:32:33 , 0.519 , 0.488 , 0.551 , 0.0657 , -0.0989 , 0.616, 25.87 , 33.82  
10-Jul-2018 18:33:33 , 0.139 , 0.353 , 0.482 , 0.467 , 0.0742 , 0.611, 25.86 , 33.82  
10-Jul-2018 18:34:33 , 0.0414 , 0.301 , 0.47 , 0.418 , 0.0632 , 0.606, 25.87 , 33.82  
10-Jul-2018 18:35:33 , 0.342 , 0.436 , 0.504 , 0.265 , 0.0271 , 0.542, 25.88 , 33.82  
10-Jul-2018 18:36:33 , -0.175 , 0.358 , 0.507 , -0.248 , -0.0728 , 0.216, 25.88 , 33.82  
10-Jul-2018 18:37:33 , -0.452 , 0.428 , 0.514 , -0.533 , -0.0421 , -0.209, 25.87 , 33.82  
10-Jul-2018 18:38:33 , -0.744 , 0.372 , 0.52 , -0.743 , -0.101 , -0.322, 25.88 , 33.82  
10-Jul-2018 18:39:33 , -0.791 , 0.317 , 0.497 , -0.476 , -0.0339 , -0.215, 25.91 , 33.82  
10-Jul-2018 18:40:33 , -0.422 , 0.43 , 0.511 , -0.271 , 0.0242 , -0.157, 25.89 , 33.82  
10-Jul-2018 18:41:33 , -0.64 , 0.478 , 0.533 , -0.693 , -0.0342 , -0.479, 25.92 , 33.82  
10-Jul-2018 18:42:34 , -1.34 , 0.318 , 0.527 , -1.18 , -0.153 , -0.725, 25.89 , 33.82  
10-Jul-2018 18:43:34 , -1.16 , 0.43 , 0.54 , -1.22 , -0.123 , -0.839, 25.9 , 33.82  
10-Jul-2018 18:44:34 , -0.718 , 0.558 , 0.561 , -1.11 , -0.103 , -0.758, 25.89 , 33.82  
10-Jul-2018 18:45:34 , -1.35 , 0.326 , 0.545 , -1.42 , -0.234 , -0.777, 25.88 , 33.82  
10-Jul-2018 18:46:34 , -1.13 , 0.502 , 0.588 , -1.69 , -0.266 , -1, 25.88 , 33.82  
10-Jul-2018 18:47:34 , -0.988 , 0.6 , 0.612 , -1.78 , -0.28 , -1.1, 25.88 , 33.82  
10-Jul-2018 18:48:34 , -1.15 , 0.554 , 0.616 , -2 , -0.348 , -1.15, 25.89 , 33.82  
10-Jul-2018 18:49:34 , -1.25 , 0.624 , 0.607 , -2.01 , -0.254 , -1.4, 25.89 , 33.82  
10-Jul-2018 18:50:34 , -0.524 , 0.957 , 0.682 , -2.19 , -0.277 , -1.56, 25.88 , 33.82  
10-Jul-2018 18:51:34 , -0.591 , 1.07 , 0.727 , -2.72 , -0.372 , -1.92, 25.89 , 33.82  
10-Jul-2018 18:52:34 , -0.53 , 1.23 , 0.798 , -3.48 , -0.555 , -2.27, 25.86 , 33.82  
10-Jul-2018 18:53:34 , -0.474 , 1.51 , 0.879 , -4.45 , -0.691 , -2.99, 25.84 , 33.82  
10-Jul-2018 18:54:34 , -0.925 , 1.56 , 0.956 , -5.98 , -1.06 , -3.62, 25.84 , 33.82  
10-Jul-2018 18:55:34 , -1.33 , 1.66 , 1.02 , -7.32 , -1.33 , -4.31, 25.84 , 33.82  
10-Jul-2018 18:56:34 , -1.21 , 1.92 , 1.05 , -7.59 , -1.21 , -4.9, 25.84 , 33.82  
10-Jul-2018 18:57:34 , -2.03 , 1.78 , 1.03 , -8.09 , -1.27 , -5.3, 25.85 , 33.82  
10-Jul-2018 18:58:34 , -1.48 , 1.9 , 1.05 , -7.86 , -1.24 , -5.09, 25.85 , 33.82  
10-Jul-2018 18:59:34 , -1.11 , 2.1 , 1.09 , -8.18 , -1.28 , -5.32, 25.85 , 33.82  
10-Jul-2018 19:00:34 , -1.82 , 1.86 , 1.06 , -8.4 , -1.35 , -5.38, 25.85 , 33.82  
10-Jul-2018 19:01:35 , -2.97 , 1.44 , 0.959 , -7.94 , -1.22 , -5.27, 25.86 , 33.82  
10-Jul-2018 19:02:35 , -2.69 , 1.37 , 0.919 , -7.15 , -1.08 , -4.81, 25.86 , 33.82  
10-Jul-2018 19:03:35 , -3.3 , 1.24 , 0.869 , -7.16 , -0.979 , -5.05, 25.86 , 33.82  
10-Jul-2018 19:04:35 , -2.84 , 1.2 , 0.828 , -6.32 , -0.83 , -4.52, 25.86 , 33.82  
10-Jul-2018 19:05:35 , -3.03 , 1.1 , 0.768 , -5.79 , -0.65 , -4.44, 25.86 , 33.82  
10-Jul-2018 19:06:35 , -2.85 , 0.892 , 0.689 , -4.73 , -0.482 , -3.71, 25.86 , 33.82  
10-Jul-2018 19:07:35 , -2.76 , 0.649 , 0.625 , -3.94 , -0.406 , -3.04, 25.86 , 33.82  
10-Jul-2018 19:08:35 , -1.9 , 0.744 , 0.608 , -3.1 , -0.251 , -2.49, 25.86 , 33.82  
10-Jul-2018 19:09:35 , -1.88 , 0.698 , 0.595 , -2.96 , -0.24 , -2.36, 25.86 , 33.82  
10-Jul-2018 19:10:35 , -2.2 , 0.543 , 0.542 , -2.68 , -0.152 , -2.28, 25.86 , 33.82  
10-Jul-2018 19:11:35 , -1.79 , 0.628 , 0.546 , -2.38 , -0.0913 , -2.08, 25.86 , 33.82  
10-Jul-2018 19:12:35 , -1.22 , 0.785 , 0.588 , -2.42 , -0.145 , -1.97, 25.86 , 33.82  
10-Jul-2018 19:13:35 , -1.55 , 0.74 , 0.576 , -2.6 , -0.14 , -2.17, 25.87 , 33.82  
10-Jul-2018 19:14:35 , -1.3 , 0.783 , 0.58 , -2.47 , -0.124 , -2.06, 25.87 , 33.82  
10-Jul-2018 19:15:35 , -1.33 , 0.741 , 0.571 , -2.35 , -0.114 , -1.96, 25.87 , 33.82  
10-Jul-2018 19:16:35 , -1.25 , 0.804 , 0.586 , -2.44 , -0.121 , -2.04, 25.86 , 33.82  
10-Jul-2018 19:17:35 , -1.29 , 0.804 , 0.591 , -2.5 , -0.136 , -2.07, 25.87 , 33.82  
10-Jul-2018 19:18:35 , -1.29 , 0.791 , 0.598 , -2.63 , -0.192 , -2.06, 25.86 , 33.82  
10-Jul-2018 19:19:36 , -1.79 , 0.645 , 0.567 , -2.7 , -0.188 , -2.14, 25.87 , 33.82  
10-Jul-2018 19:20:36 , -1.58 , 0.72 , 0.578 , -2.68 , -0.17 , -2.15, 25.87 , 33.82  
10-Jul-2018 19:21:36 , -2.12 , 0.539 , 0.546 , -2.79 , -0.199 , -2.2, 25.87 , 33.82  
10-Jul-2018 19:22:36 , -1.75 , 0.563 , 0.543 , -2.47 , -0.166 , -1.91, 25.86 , 33.82  
10-Jul-2018 19:23:36 , -2.02 , 0.413 , 0.508 , -2.27 , -0.143 , -1.75, 25.86 , 33.82  
10-Jul-2018 19:24:36 , -1.73 , 0.413 , 0.498 , -1.91 , -0.0952 , -1.48, 25.86 , 33.82  
10-Jul-2018 19:25:36 , -1.76 , 0.323 , 0.464 , -1.49 , -0.00891 , -1.26, 25.86 , 33.82  
10-Jul-2018 19:26:36 , -1.81 , 0.275 , 0.444 , -1.33 , 0.0313 , -1.19, 25.86 , 33.82  
10-Jul-2018 19:27:36 , -1.66 , 0.284 , 0.436 , -1.23 , 0.0532 , -1.1, 25.86 , 33.82  
10-Jul-2018 19:28:36 , -1.94 , 0.288 , 0.43 , -1.43 , 0.0742 , -1.38, 25.85 , 33.82  
10-Jul-2018 19:29:36 , -1.69 , 0.381 , 0.433 , -1.25 , 0.149 , -1.39, 25.84 , 33.82  
10-Jul-2018 19:30:36 , -1.62 , 0.388 , 0.421 , -1.03 , 0.213 , -1.32, 25.84 , 33.82  
10-Jul-2018 19:31:36 , -1.93 , 0.27 , 0.407 , -1.16 , 0.163 , -1.31, 25.83 , 33.82  
10-Jul-2018 19:32:36 , -1.7 , 0.238 , 0.392 , -0.794 , 0.201 , -1, 25.83 , 33.82  
10-Jul-2018 19:33:36 , -1.11 , 0.633 , 0.484 , -1.21 , 0.168 , -1.4, 25.82 , 33.82  
10-Jul-2018 19:34:36 , -0.117 , 1.05 , 0.579 , -1.34 , 0.149 , -1.52, 25.82 , 33.82  
10-Jul-2018 19:35:36 , 0.483 , 1.21 , 0.65 , -1.49 , 0.0256 , -1.36, 25.81 , 33.82  
10-Jul-2018 19:36:36 , 0.377 , 1.21 , 0.664 , -1.73 , -0.0311 , -1.48, 25.8 , 33.82  
10-Jul-2018 19:37:37 , 0.692 , 1.39 , 0.723 , -2.16 , -0.142 , -1.66, 25.8 , 33.82  
10-Jul-2018 21:10:16 , 1.83 , 0.705 , 0.49 , 1.66 , 0.373 , 1.18, 25.72 , 33.82  
10-Jul-2018 21:11:16 , 2.41 , 0.624 , 0.45 , 2.43 , 0.46 , 1.9, 25.72 , 33.82  
10-Jul-2018 21:12:16 , 2.2 , 0.657 , 0.482 , 1.86 , 0.332 , 1.6, 25.71 , 33.82  
10-Jul-2018 21:13:16 , 2.04 , 0.687 , 0.487 , 1.59 , 0.312 , 1.36, 25.72 , 33.82  
10-Jul-2018 21:14:16 , 3 , 1.06 , 0.588 , 1.24 , 0.19 , 1.3, 25.73 , 33.82  
10-Jul-2018 21:15:16 , 3.42 , 1.2 , 0.597 , 1.45 , 0.276 , 1.33, 25.73 , 33.82  
10-Jul-2018 21:16:16 , 4.47 , 1.42 , 0.639 , 1.89 , 0.311 , 1.75, 25.73 , 33.82  
10-Jul-2018 21:17:16 , 4.26 , 1.39 , 0.616 , 2.02 , 0.4 , 1.65, 25.72 , 33.82  
10-Jul-2018 21:18:16 , 3.73 , 1.17 , 0.536 , 2.43 , 0.54 , 1.74, 25.73 , 33.82  
10-Jul-2018 21:19:16 , 3.09 , 0.895 , 0.476 , 2.6 , 0.568 , 1.84, 25.72 , 33.82  
10-Jul-2018 21:20:16 , 3.36 , 0.708 , 0.427 , 3.29 , 0.609 , 2.57, 25.72 , 33.82  
10-Jul-2018 21:21:16 , 3.96 , 0.819 , 0.451 , 3.47 , 0.606 , 2.83, 25.72 , 33.82  
10-Jul-2018 21:22:16 , 2.95 , 0.729 , 0.428 , 2.91 , 0.617 , 2.1, 25.72 , 33.82  
10-Jul-2018 21:23:16 , 3.03 , 0.839 , 0.447 , 2.73 , 0.62 , 1.89, 25.73 , 33.82  
10-Jul-2018 21:24:16 , 2.73 , 0.816 , 0.468 , 2.34 , 0.524 , 1.68, 25.73 , 33.82  
10-Jul-2018 21:25:16 , 2.02 , 0.526 , 0.388 , 2.54 , 0.591 , 1.73, 25.72 , 33.82  
10-Jul-2018 21:26:17 , 2.06 , 0.561 , 0.409 , 2.4 , 0.541 , 1.7, 25.73 , 33.82  
10-Jul-2018 21:27:17 , 1.42 , 0.467 , 0.38 , 2.2 , 0.572 , 1.36, 25.74 , 33.82  
10-Jul-2018 21:28:17 , 1.51 , 0.39 , 0.387 , 2.19 , 0.479 , 1.62, 25.74 , 33.82  
10-Jul-2018 21:29:17 , 1.53 , 0.41 , 0.396 , 2.13 , 0.462 , 1.6, 25.73 , 33.82  
10-Jul-2018 21:30:17 , 2.29 , 0.614 , 0.43 , 2.43 , 0.512 , 1.81, 25.74 , 33.82  
10-Jul-2018 21:31:17 , 1.76 , 0.686 , 0.461 , 1.72 , 0.444 , 1.13, 25.74 , 33.82  
10-Jul-2018 21:32:17 , 1.01 , 0.583 , 0.427 , 1.44 , 0.479 , 0.7, 25.73 , 33.82  
10-Jul-2018 21:33:17 , 2.04 , 0.743 , 0.481 , 1.67 , 0.386 , 1.25, 25.73 , 33.82  
10-Jul-2018 21:34:17 , 2 , 0.702 , 0.488 , 1.59 , 0.327 , 1.32, 25.73 , 33.82  
10-Jul-2018 21:35:17 , 1.95 , 0.538 , 0.41 , 2.38 , 0.524 , 1.71, 25.73 , 33.82  
10-Jul-2018 21:36:17 , 2.25 , 0.533 , 0.408 , 2.71 , 0.552 , 2.01, 25.73 , 33.82  
10-Jul-2018 21:37:17 , 1.16 , 0.196 , 0.337 , 2.51 , 0.543 , 1.78, 25.74 , 33.82  
10-Jul-2018 21:38:17 , 1.54 , 0.164 , 0.334 , 2.77 , 0.52 , 2.18, 25.76 , 33.82  
10-Jul-2018 21:39:17 , 0.878 , 0.201 , 0.352 , 2.06 , 0.462 , 1.48, 25.73 , 33.82  
10-Jul-2018 21:40:17 , 0.979 , 0.253 , 0.366 , 1.95 , 0.437 , 1.43, 25.71 , 33.82  
10-Jul-2018 21:41:17 , 1.02 , 0.225 , 0.387 , 1.71 , 0.317 , 1.51, 25.71 , 33.82  
10-Jul-2018 21:42:17 , 1.27 , 0.394 , 0.439 , 1.3 , 0.224 , 1.31, 25.71 , 33.82  
10-Jul-2018 21:43:17 , 1.72 , 0.732 , 0.53 , 0.693 , 0.119 , 0.902, 25.71 , 33.82  
10-Jul-2018 21:44:18 , 1.77 , 0.932 , 0.6 , -0.0542 , -0.0197 , 0.427, 25.71 , 33.82  
10-Jul-2018 21:45:18 , 1.57 , 1.01 , 0.63 , -0.523 , -0.0853 , 0.0511, 25.71 , 33.82  
10-Jul-2018 21:46:18 , 1.79 , 1.15 , 0.687 , -0.93 , -0.202 , -0.108, 25.71 , 33.82  
10-Jul-2018 21:47:18 , 1.59 , 1.25 , 0.724 , -1.43 , -0.27 , -0.518, 25.72 , 33.82  
10-Jul-2018 21:48:18 , 2.29 , 1.31 , 0.753 , -1.13 , -0.347 , 0.0338, 25.71 , 33.82  
10-Jul-2018 21:49:18 , 2.28 , 1.34 , 0.775 , -1.35 , -0.41 , -0.0518, 25.71 , 33.82  
10-Jul-2018 21:50:18 , 2.44 , 1.34 , 0.784 , -1.29 , -0.453 , 0.119, 25.71 , 33.82  
10-Jul-2018 21:51:18 , 2.26 , 1.21 , 0.747 , -0.959 , -0.381 , 0.289, 25.71 , 33.82  
10-Jul-2018 21:52:18 , 2.04 , 1.05 , 0.688 , -0.387 , -0.24 , 0.539, 25.71 , 33.82  
10-Jul-2018 21:53:18 , 2.47 , 1.11 , 0.689 , -0.0692 , -0.19 , 0.774, 25.71 , 33.82  
10-Jul-2018 21:54:18 , 1.72 , 0.876 , 0.636 , -0.153 , -0.164 , 0.621, 25.71 , 33.82  
10-Jul-2018 21:55:18 , 1.58 , 0.862 , 0.603 , 0.0154 , -0.0498 , 0.518, 25.71 , 33.82  
10-Jul-2018 21:56:18 , 1.53 , 0.837 , 0.573 , 0.173 , 0.0347 , 0.511, 25.72 , 33.82  
10-Jul-2018 21:57:18 , 1.79 , 0.777 , 0.538 , 0.692 , 0.124 , 0.882, 25.72 , 33.82  
10-Jul-2018 21:58:18 , 2.37 , 0.928 , 0.556 , 0.839 , 0.159 , 0.998, 25.72 , 33.82  
10-Jul-2018 21:59:18 , 2.96 , 1.29 , 0.616 , 0.744 , 0.234 , 0.658, 25.72 , 33.82  
10-Jul-2018 22:00:18 , 2.59 , 1.27 , 0.591 , 0.692 , 0.316 , 0.367, 25.72 , 33.82  
10-Jul-2018 22:01:18 , 3.22 , 1.39 , 0.585 , 1.23 , 0.453 , 0.631, 25.72 , 33.82  